Tracking 29059 objects as of 19-Jun-2024
HD Live streaming from Space Station
objects crossing your sky now

FR 1

Track FR 1 now!
10-day predictions
FR 1 is classified as:


NORAD ID: 1814
Int'l Code: 1965-101A
Perigee: 669.1 km
Apogee: 673.7 km
Inclination: 75.9 °
Period: 98.0 minutes
Semi major axis: 7042 km
RCS: 0.5793 m2 (medium)
Launch date: December 6, 1965
Source: France (FR)
Launch site: AIR FORCE WESTERN TEST RANGE (AFWTR)
Your satellite tracking list
Your tracking list is empty




NASA's NSSDC Master Catalog

Two Line Element Set (TLE):
1  1814U 65101A   24171.23476990  .00001175  00000-0  20326-3 0  9992
2  1814  75.8650 165.1640 0003265  96.3621 263.7931 14.68986214970133
Source of the keplerian elements: AFSPC